Location: Unnamed
(51.8936°N, 11.0665°E)
Time: 01:18:29
(UTC+02:00)

UKube-1 - Pass Details

Date: 26 September 2021
Orbit: 611 x 618 km, 98.4° (Epoch: 18 October)

Event Time Altitude Azimuth Distance (km) Brightness Sun altitude
Rises 22:00:44 0° 16° (NNE) 2,892 ? -26.5°
Reaches altitude 10° 22:02:56 10° 20° (NNE) 1,983 ? -26.8°
Enters shadow 22:04:21 20° 23° (NNE) 1,419 ? -26.9°
